User: anonymous   Login
Location: Caltech
(34.1382°N, 118.1253°W)
Time: 00:56:28
(UTC-07:00)
Language:

Cosmos 44 Rocket - Orbit

View from above orbital plane
View from above orbital plane
View from above satellite
View from above satellite

Ground track
Ground track

The orbit data is extracted from the following two-line orbital elements,

1 00877U 64053B   15109.18364118  .00000531  00000-0  13527-3 0  9998
2 00877 065.0779 080.3771 0052529 051.7456 308.8352 14.59084841686244
Epoch (UTC): 19 April 2015 04:24:26
Eccentricity: 0.0052529
inclination: 65.0779°
perigee height: 659 km
apogee height: 733 km
right ascension of ascending node: 80.3771°
argument of perigee: 51.7456°
revolutions per day: 14.59084841
mean anomaly at epoch: 308.8352°
orbit number at epoch: 68624

The dashed part of the orbit path shows where the satellite is in the earth's shadow,  

DLR